Location: La Silve
(44.2414°N, 5.8889°E)
Time: 11:53:09
(UTC+00:00)

SAR-Lupe-4 - Pass Details

Date: 01 December 2020
Orbit: 481 x 484 km, 98.2° (Epoch: 09 January)

Event Time Altitude Azimuth Distance (km) Brightness Sun altitude
Exits shadow 17:29:13 31° 57° (ENE) 867 4.3 -15.7°
Maximum altitude 17:30:18 41° 99° (E) 719 3.9 -15.9°
Drops below altitude 10° 17:33:42 10° 171° (S) 1,662 6.3 -16.5°
Sets 17:35:50 0° 179° (S) 2,537 7.4 -16.9°
